Location: Ku?niki
(51.4449°N, 17.8974°E)
Time: 16:24:36
(UTC+00:00)

Meteor 2-19 Rocket - Pass Details

Date: 18 September 2020
Orbit: 935 x 959 km, 82.5° (Epoch: 22 October)

Event Time Altitude Azimuth Distance (km) Brightness Sun altitude
Rises 19:56:21 0° 349° (NNW) 3,642 8.3 -26.6°
Reaches altitude 10° 19:58:52 10° 349° (N) 2,689 7.5 -26.8°
Maximum altitude 20:05:02 89° 264° (W) 955 4.3 -27.5°
Enters shadow 20:05:41 74° 175° (S) 989 4.3 -27.6°
